DW9945 Weather Reports


time (UTC)temp
C
wind
direction
speed
KPH
gust
KPH
rain 1hr
cm
rain 24hr
cm
rain mn
cm
humidity
%
barometer
mb
20260509024508 12 146 0.0 0.0 0.00 0.36 0.00 84 1010.5
20260509024008 12 146 0.0 0.0 0.00 0.36 0.00 84 1010.5
20260509023508 12 146 0.0 0.0 0.00 0.36 0.00 83 1010.4
20260509022008 12 145 4.8 9.7 0.00 0.36 0.00 83 1010.4
20260509021507 12 136 3.2 9.7 0.00 0.36 0.00 83 1010.5
20260509021007 12 144 4.8 11.3 0.00 0.36 0.00 83 1010.4
20260509020507 12 142 6.4 11.3 0.00 0.36 0.00 82 1010.4
20260509015507 12 149 8.0 19.3 0.00 0.36 0.00 82 1010.6
20260509015007 12 151 8.0 16.1 0.00 0.36 0.00 82 1010.6
20260509014507 12 154 9.7 16.1 0.00 0.36 0.00 82 1010.6
20260509013507 12 145 6.4 16.1 0.00 0.36 0.00 81 1010.6
20260509013008 12 145 8.0 14.5 0.00 0.36 0.00 81 1010.6
20260509012507 12 147 4.8 14.5 0.00 0.36 0.00 81 1010.6
20260509012007 12 146 11.3 20.9 0.00 0.36 0.00 81 1010.8
20260509011507 12 145 9.7 20.9 0.00 0.36 0.00 81 1010.8
20260509011007 12 153 8.0 14.5 0.00 0.36 0.00 81 1010.9
20260509010507 12 169 9.7 19.3 0.00 0.36 0.00 80 1011.0
20260509010008 13 138 6.4 19.3 0.00 0.36 0.00 80 1010.9
20260509005007 12 140 6.4 20.9 0.00 0.36 0.00 81 1010.9
20260509004507 12 166 6.4 19.3 0.00 0.36 0.00 81 1011.1
20260509004008 12 163 6.4 14.5 0.00 0.36 0.00 81 1011.1
20260509003508 12 157 4.8 12.9 0.00 0.36 0.00 81 1011.3
20260509001507 12 149 0.0 8.0 0.00 0.36 0.00 82 1011.3
20260509001007 12 125 4.8 9.7 0.00 0.36 0.00 83 1011.4
20260509000007 12 98 4.8 9.7 0.00 0.36 0.00 84 1011.4
20260508235509 12 98 4.8 9.7 0.00 0.36 0.00 85 1011.4
20260508235007 12 87 0.0 4.8 0.00 0.36 0.00 86 1011.4
20260508234007 11 34 0.0 0.0 0.00 0.36 0.00 88 1011.6
20260508233508 11 34 0.0 0.0 0.00 0.36 0.00 88 1011.4
20260508233008 11 31 1.6 4.8 0.00 0.36 0.00 89 1011.4
20260508232507 11 43 3.2 8.0 0.00 0.36 0.00 89 1011.4
20260508232007 11 355 4.8 11.3 0.00 0.36 0.00 89 1011.3
20260508231508 11 353 6.4 9.7 0.00 0.36 0.00 89 1011.3
20260508231007 11 348 6.4 9.7 0.00 0.36 0.00 89 1011.4
20260508230507 11 350 8.0 9.7 0.00 0.36 0.00 89 1011.4
20260508230007 11 345 4.8 8.0 0.00 0.36 0.00 88 1011.5
20260508225507 11 346 3.2 4.8 0.00 0.36 0.00 87 1011.5
20260508225007 11 46 1.6 4.8 0.00 0.36 0.00 87 1011.5
20260508224507 11 60 1.6 8.0 0.00 0.36 0.00 87 1011.6
20260508223507 11 41 3.2 9.7 0.00 0.36 0.00 87 1011.6
20260508222507 11 12 9.7 14.5 0.00 0.36 0.00 87 1011.5
20260508222007 11 3 9.7 16.1 0.00 0.36 0.00 87 1011.5
20260508221507 11 354 8.0 12.9 0.00 0.36 0.00 87 1011.5
20260508221007 11 348 8.0 14.5 0.00 0.36 0.00 87 1011.6
20260508220508 11 353 9.7 14.5 0.00 0.36 0.00 86 1011.6
20260508220008 11 359 8.0 14.5 0.00 0.36 0.00 86 1011.6
20260508215507 11 5 8.0 14.5 0.00 0.36 0.36 86 1011.6
20260508215007 11 358 9.7 12.9 0.00 0.36 0.36 87 1011.7
20260508214507 11 351 9.7 14.5 0.00 0.36 0.36 87 1011.8
20260508213508 11 351 8.0 9.7 0.00 0.36 0.36 88 1011.8
20260508213007 11 354 8.0 9.7 0.00 0.36 0.36 88 1011.8
20260508212507 11 352 6.4 9.7 0.00 0.36 0.36 88 1011.8
20260508212007 11 357 8.0 11.3 0.00 0.36 0.36 87 1011.8
20260508211507 11 8 6.4 9.7 0.00 0.36 0.36 87 1011.8
20260508211007 11 349 8.0 12.9 0.00 0.36 0.36 87 1011.7
20260508210507 11 352 4.8 8.0 0.00 0.36 0.36 86 1011.7
20260508205507 11 16 6.4 9.7 0.00 0.36 0.36 86 1011.6
20260508204507 11 7 4.8 8.0 0.00 0.36 0.36 85 1011.6
20260508203507 11 34 4.8 8.0 0.00 0.36 0.36 84 1011.6
20260508203008 11 22 4.8 8.0 0.00 0.36 0.36 84 1011.6
20260508202507 11 22 4.8 11.3 0.00 0.36 0.36 83 1011.6
20260508202007 11 6 8.0 11.3 0.00 0.36 0.36 82 1011.3
20260508201007 12 19 4.8 4.8 0.00 0.36 0.36 80 1011.3
20260508200507 12 19 3.2 8.0 0.00 0.36 0.36 80 1011.3
20260508200007 12 30 3.2 4.8 0.00 0.36 0.36 80 1011.3
20260508195507 12 34 3.2 8.0 0.00 0.36 0.36 80 1011.2
20260508195007 12 56 3.2 4.8 0.00 0.36 0.36 80 1011.2
20260508194507 12 25 3.2 4.8 0.00 0.36 0.36 79 1011.2
20260508194007 12 25 1.6 4.8 0.00 0.36 0.36 79 1011.2
20260508193507 12 28 3.2 4.8 0.00 0.36 0.36 79 1011.2
20260508193007 12 32 1.6 4.8 0.00 0.36 0.36 80 1011.1
20260508192507 12 20 1.6 4.8 0.00 0.36 0.36 79 1011.1
20260508192007 13 19 3.2 4.8 0.00 0.36 0.36 78 1010.9
20260508191507 13 19 3.2 4.8 0.00 0.36 0.36 76 1010.9
20260508190507 14 28 0.0 0.0 0.00 0.36 0.36 73 1010.7
20260508185507 15 28 1.6 3.2 0.00 0.36 0.36 70 1010.7
20260508185007 15 28 1.6 4.8 0.00 0.36 0.36 69 1010.7
20260508184508 15 22 1.6 4.8 0.00 0.36 0.36 68 1010.7
20260508184010 16 5 3.2 4.8 0.00 0.36 0.36 66 1010.6
20260508183507 16 5 3.2 4.8 0.00 0.36 0.36 65 1010.6
20260508183007 16 5 3.2 4.8 0.00 0.36 0.36 64 1010.5
20260508182507 16 5 3.2 4.8 0.00 0.36 0.36 63 1010.5
20260508181507 16 5 4.8 8.0 0.00 0.36 0.36 62 1010.4
20260508180007 16 346 4.8 8.0 0.00 0.36 0.36 62 1010.5
20260508175507 16 355 3.2 8.0 0.00 0.36 0.36 64 1010.5
20260508175007 16 12 6.4 11.3 0.00 0.36 0.36 64 1010.5
20260508174507 15 10 4.8 8.0 0.00 0.36 0.36 64 1010.6
20260508174006 15 10 4.8 11.3 0.00 0.36 0.36 65 1010.7
20260508173507 15 0 4.8 12.9 0.00 0.36 0.36 67 1010.7
20260508172007 16 352 11.3 16.1 0.00 0.36 0.36 67 1010.5
20260508171507 16 353 11.3 19.3 0.00 0.36 0.36 67 1010.6
20260508170507 16 355 6.4 9.7 0.00 0.36 0.36 64 1010.6
20260508170008 16 324 4.8 4.8 0.00 0.36 0.36 63 1010.6
20260508165507 16 292 6.4 11.3 0.00 0.36 0.36 63 1010.6
20260508165010 16 344 11.3 16.1 0.00 0.36 0.36 65 1010.6
20260508164507 16 315 9.7 19.3 0.00 0.36 0.36 67 1010.6
20260508164007 16 340 9.7 14.5 0.00 0.36 0.36 66 1010.7
20260508163507 16 301 8.0 14.5 0.00 0.36 0.36 64 1010.7
20260508163007 16 316 9.7 16.1 0.00 0.36 0.36 65 1010.8
20260508162507 16 321 9.7 16.1 0.00 0.36 0.36 68 1010.8
20260508161506 15 318 14.5 19.3 0.00 0.36 0.36 69 1010.8
20260508161006 15 341 16.1 22.5 0.00 0.36 0.36 71 1010.7
20260508160507 15 319 19.3 25.7 0.00 0.36 0.36 70 1010.8
20260508155506 16 291 19.3 27.4 0.00 0.38 0.36 72 1010.8
20260508154507 17 281 11.3 27.4 0.00 0.41 0.36 62 1010.9
20260508154006 17 228 9.7 19.3 0.00 0.43 0.36 60 1010.8
20260508153007 16 196 12.9 22.5 0.00 0.51 0.36 57 1010.8
20260508152507 16 216 14.5 24.1 0.00 0.51 0.36 58 1010.9
20260508152007 16 201 16.1 22.5 0.00 0.51 0.36 60 1010.8
20260508151507 16 197 11.3 19.3 0.00 0.53 0.36 61 1010.9
20260508151007 16 200 9.7 16.1 0.00 0.53 0.36 61 1010.9
20260508150507 16 212 9.7 16.1 0.00 0.53 0.36 62 1011.0
20260508145506 16 212 4.8 19.3 0.00 0.53 0.36 63 1011.0
20260508145006 16 180 8.0 16.1 0.00 0.53 0.36 62 1011.2
20260508144506 16 228 9.7 22.5 0.00 0.53 0.36 62 1011.2
20260508144006 16 168 8.0 19.3 0.00 0.53 0.36 63 1011.2
20260508143506 16 200 9.7 19.3 0.00 0.56 0.36 62 1011.3
20260508142507 16 200 6.4 14.5 0.00 0.61 0.36 63 1011.4
20260508142007 15 207 9.7 16.1 0.00 0.61 0.36 65 1011.3
20260508141507 15 157 4.8 14.5 0.00 0.61 0.36 66 1011.4
20260508141007 15 131 4.8 11.3 0.00 0.61 0.36 66 1011.4
20260508140007 15 207 4.8 11.3 0.00 0.61 0.36 68 1011.7
20260508135506 15 197 4.8 16.1 0.00 0.64 0.36 67 1011.8
20260508134506 15 107 8.0 12.9 0.03 0.69 0.36 69 1011.8
20260508134006 15 120 1.6 8.0 0.05 0.84 0.36 73 1011.7
20260508133506 14 273 1.6 4.8 0.10 0.89 0.36 73 1011.8
20260508133006 13 124 0.0 4.8 0.23 0.97 0.36 73 1011.8
20260508132506 13 178 3.2 8.0 0.23 0.99 0.36 75 1011.8
20260508131507 13 246 4.8 9.7 0.23 1.02 0.36 81 1011.8
20260508130507 12 315 9.7 16.1 0.23 1.02 0.36 80 1011.9
20260508130007 12 318 12.9 19.3 0.23 1.02 0.36 83 1011.9
20260508124506 11 325 14.5 19.3 0.23 0.99 0.33 84 1011.9
20260508124006 12 318 8.0 9.7 0.20 0.99 0.33 83 1012.3
20260508123506 12 322 0.0 1.6 0.15 0.91 0.25 83 1012.8
20260508123007 12 330 3.2 8.0 0.00 0.79 0.13 83 1012.8
20260508122507 12 340 9.7 12.9 0.00 0.79 0.13 81 1012.5
20260508122006 12 327 11.3 14.5 0.00 0.79 0.13 80 1012.7
20260508121506 12 340 11.3 19.3 0.00 0.79 0.13 81 1012.5
20260508120506 12 328 9.7 14.5 0.00 0.79 0.13 84 1012.6
20260508120007 12 333 9.7 12.9 0.03 0.79 0.13 81 1012.6
20260508115506 12 324 8.0 9.7 0.05 0.79 0.13 80 1012.5
20260508115006 12 318 8.0 12.9 0.05 0.79 0.13 83 1012.6
20260508114507 11 332 6.4 12.9 0.05 0.79 0.13 81 1012.7
20260508114006 11 327 8.0 12.9 0.10 0.79 0.13 82 1012.8
20260508113006 11 342 6.4 9.7 0.13 0.79 0.13 85 1012.6
20260508112507 11 330 8.0 11.3 0.13 0.79 0.13 87 1012.7
20260508111006 11 310 8.0 12.9 0.13 0.79 0.13 86 1013.2
20260508110507 11 301 8.0 12.9 0.13 0.79 0.13 88 1013.2
20260508110007 11 283 9.7 14.5 0.10 0.76 0.10 86 1013.2
20260508105506 11 281 9.7 19.3 0.08 0.74 0.08 86 1013.3
20260508105006 11 282 8.0 14.5 0.05 0.71 0.05 85 1013.1
20260508104506 11 308 11.3 14.5 0.05 0.71 0.05 83 1013.1
20260508104006 12 268 8.0 14.5 0.03 0.69 0.03 81 1013.2
20260508103506 12 237 6.4 11.3 0.00 0.66 0.00 78 1013.1
20260508103011 12 239 4.8 8.0 0.00 0.66 0.00 78 1013.1
20260508102507 12 206 6.4 9.7 0.00 0.66 0.00 76 1013.0
20260508102008 13 182 4.8 9.7 0.00 0.66 0.00 74 1012.9
20260508101508 13 192 3.2 8.0 0.00 0.66 0.00 74 1012.9
20260508101008 12 152 4.8 8.0 0.00 0.66 0.00 74 1012.9
20260508100509 12 215 6.4 9.7 0.00 0.66 0.00 75 1012.9
20260508100008 12 148 8.0 12.9 0.00 0.66 0.00 75 1012.8
20260508095508 12 130 4.8 11.3 0.00 0.66 0.00 75 1012.8
20260508095008 12 93 4.8 8.0 0.00 0.66 0.00 76 1012.8
20260508094508 12 109 4.8 11.3 0.00 0.66 0.00 75 1012.7
20260508094008 12 138 4.8 8.0 0.00 0.66 0.00 75 1012.7
20260508093508 12 89 1.6 8.0 0.00 0.66 0.00 76 1012.7
20260508093008 12 133 3.2 4.8 0.00 0.66 0.00 75 1012.9
20260508092508 12 109 0.0 0.0 0.00 0.66 0.00 76 1012.9
20260508092008 12 109 0.0 4.8 0.00 0.66 0.00 76 1012.8
20260508091508 12 148 1.6 4.8 0.00 0.66 0.00 78 1012.7
20260508090509 11 110 3.2 9.7 0.00 0.66 0.00 78 1012.8
20260508090008 11 115 6.4 12.9 0.00 0.66 0.00 77 1013.0
20260508085508 11 125 6.4 12.9 0.00 0.66 0.00 78 1012.9
20260508085008 11 100 4.8 12.9 0.00 0.66 0.00 78 1012.7
20260508084508 11 84 8.0 11.3 0.00 0.66 0.00 78 1012.7
20260508084008 11 101 8.0 12.9 0.00 0.66 0.00 78 1012.6
20260508083509 11 66 8.0 12.9 0.00 0.66 0.00 78 1012.5
20260508083008 11 85 9.7 14.5 0.00 0.66 0.00 77 1012.5
20260508082008 11 74 4.8 11.3 0.00 0.66 0.00 79 1012.6
20260508081008 11 82 8.0 11.3 0.00 0.66 0.00 81 1012.6
20260508080008 10 68 4.8 8.0 0.00 0.66 0.00 82 1012.7
20260508075508 10 66 4.8 9.7 0.00 0.66 0.00 82 1012.8
20260508075008 10 70 3.2 11.3 0.00 0.66 0.00 82 1012.8
20260508074008 10 45 1.6 4.8 0.00 0.66 0.00 85 1012.8
20260508073508 10 54 3.2 8.0 0.00 0.66 0.00 85 1012.7
20260508073008 9 72 4.8 9.7 0.00 0.66 0.00 85 1012.7
20260508072507 9 47 0.0 4.8 0.00 0.66 0.00 86 1012.7
20260508072007 9 44 1.6 4.8 0.00 0.66 0.00 86 1012.6
20260508071508 9 18 3.2 4.8 0.00 0.66 0.00 86 1012.5
20260508071008 9 50 1.6 9.7 0.00 0.66 0.00 86 1012.2
20260508070508 9 40 3.2 9.7 0.00 0.66 0.00 86 1012.2
20260508070008 9 52 4.8 8.0 0.00 0.66 0.00 85 1012.5
20260508065008 8 54 3.2 9.7 0.00 0.66 0.00 85 1012.4
20260508064008 8 56 3.2 8.0 0.00 0.66 0.00 86 1012.3
20260508063508 8 55 0.0 3.2 0.00 0.66 0.00 86 1012.4
20260508063008 8 45 0.0 4.8 0.00 0.66 0.00 86 1012.4
20260508062507 8 11 3.2 8.0 0.00 0.66 0.00 85 1012.3
20260508062007 8 46 6.4 14.5 0.00 0.66 0.00 85 1012.2
20260508061509 8 52 6.4 12.9 0.00 0.66 0.00 86 1012.3
20260508061008 8 53 6.4 12.9 0.00 0.66 0.00 87 1012.2
20260508060508 8 34 4.8 8.0 0.00 0.66 0.00 87 1012.2
20260508060007 8 17 4.8 8.0 0.00 0.66 0.00 87 1012.3
20260508055507 8 24 8.0 12.9 0.00 0.66 0.00 87 1012.2
20260508055007 8 25 6.4 11.3 0.00 0.66 0.00 87 1012.5
20260508054008 8 25 8.0 12.9 0.00 0.66 0.00 87 1012.4
20260508053508 8 9 6.4 11.3 0.00 0.66 0.00 88 1012.4
20260508053008 8 23 6.4 11.3 0.00 0.66 0.00 88 1012.3
20260508052508 8 24 8.0 12.9 0.00 0.66 0.00 88 1012.3
20260508052008 8 24 8.0 14.5 0.00 0.66 0.00 88 1012.2
20260508051508 8 26 8.0 11.3 0.00 0.66 0.00 88 1012.3
20260508051008 8 21 8.0 12.9 0.00 0.66 0.00 89 1012.3
20260508050508 7 22 4.8 11.3 0.00 0.66 0.00 89 1012.3
20260508050008 7 8 4.8 8.0 0.00 0.66 0.00 90 1012.4
20260508045508 7 17 4.8 11.3 0.00 0.66 0.00 90 1012.4
20260508044508 7 12 4.8 8.0 0.00 0.66 0.00 90 1012.2
20260508044007 7 2 3.2 4.8 0.00 0.66 0.00 90 1012.2
20260508043508 7 355 0.0 4.8 0.00 0.66 0.00 89 1012.2
20260508043008 7 358 4.8 8.0 0.00 0.66 0.00 89 1012.1
20260508042508 7 5 3.2 4.8 0.00 0.66 0.00 89 1012.1
20260508042008 7 22 4.8 8.0 0.00 0.66 0.00 89 1012.1
20260508041508 7 20 4.8 11.3 0.00 0.66 0.00 89 1012.1
20260508041007 7 13 4.8 8.0 0.00 0.66 0.00 89 1012.0
20260508040507 7 19 4.8 8.0 0.00 0.66 0.00 89 1011.9
20260508040008 7 20 4.8 9.7 0.00 0.66 0.00 89 1011.9
20260508035507 7 16 0.0 4.8 0.00 0.66 0.00 90 1011.8
20260508035007 7 14 0.0 4.8 0.00 0.66 0.00 90 1011.8
20260508034507 7 14 4.8 4.8 0.00 0.66 0.00 89 1011.9
20260508033507 7 2 4.8 8.0 0.00 0.66 0.00 89 1011.9
20260508033007 7 16 6.4 9.7 0.00 0.66 0.00 88 1011.9
20260508032507 7 358 4.8 4.8 0.00 0.66 0.00 88 1011.9
20260508032008 8 0 3.2 11.3 0.00 0.66 0.00 88 1011.9
20260508031008 8 22 8.0 12.9 0.00 0.66 0.00 88 1011.7
20260508030507 8 25 8.0 14.5 0.00 0.66 0.00 88 1011.7
20260508030008 8 15 8.0 12.9 0.00 0.66 0.00 88 1011.7
20260508025507 7 25 8.0 14.5 0.00 0.66 0.00 88 1011.7
20260508025008 8 13 8.0 14.5 0.00 0.66 0.00 88 1011.7